| time (UTC) | temp F | wind direction | speed knots | gust knots | rain 1hr in | rain 24hr in | rain mn in | humidity % | barometer mb |
| 20260506104037 | 67 | 200 | 3.5 | 12.2 | 0.00 | 0.00 | 0.00 | 57 | 1006.6 |
| 20260506103537 | 67 | 179 | 3.5 | 9.6 | 0.00 | 0.00 | 0.00 | 56 | 1006.7 |
| 20260506103052 | 68 | 161 | 2.6 | 9.6 | 0.00 | 0.00 | 0.00 | 56 | 1006.5 |
| 20260506102538 | 68 | 185 | 5.2 | 10.4 | 0.00 | 0.00 | 0.00 | 56 | 1006.3 |
| 20260506102039 | 68 | 184 | 3.5 | 10.4 | 0.00 | 0.00 | 0.00 | 56 | 1006.3 |
| 20260506101547 | 68 | 165 | 3.5 | 7.0 | 0.00 | 0.00 | 0.00 | 56 | 1006.4 |
| 20260506101038 | 68 | 161 | 1.7 | 8.7 | 0.00 | 0.00 | 0.00 | 55 | 1006.4 |
| 20260506100537 | 68 | 174 | 3.5 | 8.7 | 0.00 | 0.00 | 0.00 | 55 | 1006.4 |
| 20260506100103 | 68 | 167 | 2.6 | 11.3 | 0.00 | 0.00 | 0.00 | 55 | 1006.4 |
| 20260506095538 | 68 | 159 | 2.6 | 11.3 | 0.00 | 0.00 | 0.00 | 54 | 1006.2 |
| 20260506095038 | 68 | 236 | 3.5 | 11.3 | 0.00 | 0.00 | 0.00 | 54 | 1006.2 |
| 20260506094549 | 68 | 181 | 1.7 | 11.3 | 0.00 | 0.00 | 0.00 | 54 | 1006.5 |
| 20260506094037 | 68 | 194 | 2.6 | 11.3 | 0.00 | 0.00 | 0.00 | 53 | 1006.5 |
| 20260506093536 | 68 | 140 | 2.6 | 10.4 | 0.00 | 0.00 | 0.00 | 53 | 1006.4 |
| 20260506093049 | 69 | 215 | 2.6 | 10.4 | 0.00 | 0.00 | 0.00 | 53 | 1006.4 |
| 20260506092538 | 69 | 168 | 2.6 | 9.6 | 0.00 | 0.00 | 0.00 | 52 | 1006.5 |
| 20260506092040 | 69 | 209 | 2.6 | 9.6 | 0.00 | 0.00 | 0.00 | 52 | 1006.4 |
| 20260506091553 | 69 | 181 | 3.5 | 8.7 | 0.00 | 0.00 | 0.00 | 52 | 1006.4 |
| 20260506091039 | 69 | 229 | 2.6 | 13.9 | 0.00 | 0.00 | 0.00 | 51 | 1006.6 |
| 20260506090537 | 69 | 175 | 2.6 | 13.9 | 0.00 | 0.00 | 0.00 | 51 | 1006.7 |
| 20260506090048 | 69 | 135 | 4.3 | 9.6 | 0.00 | 0.00 | 0.00 | 51 | 1006.5 |
| 20260506085537 | 69 | 176 | 1.7 | 10.4 | 0.00 | 0.00 | 0.00 | 50 | 1006.5 |
| 20260506085037 | 69 | 178 | 2.6 | 10.4 | 0.00 | 0.00 | 0.00 | 50 | 1006.5 |
| 20260506084555 | 69 | 196 | 1.7 | 9.6 | 0.00 | 0.00 | 0.00 | 50 | 1006.6 |
| 20260506084037 | 69 | 55 | 3.5 | 9.6 | 0.00 | 0.00 | 0.00 | 49 | 1006.5 |
| 20260506083539 | 69 | 226 | 2.6 | 7.8 | 0.00 | 0.00 | 0.00 | 49 | 1006.6 |
| 20260506083046 | 69 | 200 | 0.9 | 7.8 | 0.00 | 0.00 | 0.00 | 49 | 1006.6 |
| 20260506082537 | 69 | 162 | 1.7 | 7.0 | 0.00 | 0.00 | 0.00 | 48 | 1006.7 |
| 20260506082040 | 69 | 201 | 1.7 | 5.2 | 0.00 | 0.00 | 0.00 | 48 | 1006.6 |
| 20260506081545 | 69 | 180 | 1.7 | 5.2 | 0.00 | 0.00 | 0.00 | 48 | 1006.6 |
| 20260506081039 | 69 | 211 | 0.9 | 6.1 | 0.00 | 0.00 | 0.00 | 48 | 1006.7 |
| 20260506080538 | 69 | 0 | 1.7 | 8.7 | 0.00 | 0.00 | 0.00 | 47 | 1006.7 |
| 20260506073045 | 70 | 184 | 1.7 | 11.3 | 0.00 | 0.00 | 0.00 | 46 | 1006.9 |
| 20260506072537 | 70 | 151 | 2.6 | 11.3 | 0.00 | 0.00 | 0.00 | 45 | 1006.8 |
| 20260506072037 | 70 | 207 | 2.6 | 12.2 | 0.00 | 0.00 | 0.00 | 45 | 1006.9 |
| 20260506071552 | 70 | 180 | 5.2 | 12.2 | 0.00 | 0.00 | 0.00 | 45 | 1006.9 |
| 20260506071038 | 70 | 149 | 1.7 | 10.4 | 0.00 | 0.00 | 0.00 | 45 | 1007.0 |
| 20260506070541 | 70 | 179 | 1.7 | 12.2 | 0.00 | 0.00 | 0.00 | 44 | 1007.0 |
| 20260506062040 | 71 | 181 | 0.9 | 8.7 | 0.00 | 0.00 | 0.00 | 42 | 1007.5 |
| 20260506061549 | 71 | 139 | 2.6 | 9.6 | 0.00 | 0.00 | 0.00 | 42 | 1007.6 |
| 20260506061040 | 71 | 177 | 2.6 | 9.6 | 0.00 | 0.00 | 0.00 | 42 | 1007.6 |
| 20260506060539 | 71 | 214 | 1.7 | 8.7 | 0.00 | 0.00 | 0.00 | 42 | 1007.7 |
| 20260506051039 | 70 | 252 | 1.7 | 7.0 | 0.00 | 0.00 | 0.00 | 41 | 1008.0 |
| 20260506050543 | 70 | 182 | 1.7 | 7.0 | 0.00 | 0.00 | 0.00 | 41 | 1008.1 |
| 20260506045038 | 70 | 191 | 2.6 | 9.6 | 0.00 | 0.00 | 0.00 | 41 | 1008.1 |
| 20260506044549 | 69 | 168 | 1.7 | 7.8 | 0.00 | 0.00 | 0.00 | 43 | 1008.0 |
| 20260506044036 | 69 | 0 | 2.6 | 7.8 | 0.00 | 0.00 | 0.00 | 43 | 1008.0 |
| 20260506043538 | 68 | 227 | 0.9 | 9.6 | 0.00 | 0.00 | 0.00 | 45 | 1008.1 |
| 20260506043049 | 67 | 247 | 2.6 | 9.6 | 0.00 | 0.00 | 0.00 | 46 | 1008.0 |
| 20260506042538 | 66 | 216 | 3.5 | 9.6 | 0.00 | 0.00 | 0.00 | 48 | 1007.8 |
| 20260506042038 | 66 | 0 | 0.0 | 5.2 | 0.00 | 0.00 | 0.00 | 52 | 1008.0 |
| 20260506041553 | 65 | 0 | 0.0 | 5.2 | 0.00 | 0.00 | 0.00 | 53 | 1008.0 |
| 20260506041038 | 65 | 202 | 0.0 | 2.6 | 0.00 | 0.00 | 0.00 | 54 | 1008.1 |
| 20260506040538 | 64 | 0 | 0.0 | 5.2 | 0.00 | 0.00 | 0.00 | 54 | 1008.1 |
| 20260506040105 | 63 | 186 | 0.0 | 5.2 | 0.00 | 0.00 | 0.00 | 56 | 1008.2 |
| 20260506035538 | 62 | 217 | 1.7 | 5.2 | 0.00 | 0.00 | 0.00 | 58 | 1008.1 |
| 20260506035038 | 61 | 0 | 0.0 | 3.5 | 0.00 | 0.00 | 0.00 | 64 | 1008.2 |
| 20260506034549 | 61 | 157 | 0.0 | 3.5 | 0.00 | 0.00 | 0.00 | 66 | 1008.2 |
| 20260506034038 | 61 | 0 | 0.0 | 1.7 | 0.00 | 0.00 | 0.00 | 68 | 1008.0 |
| 20260506033539 | 60 | 0 | 0.0 | 0.9 | 0.00 | 0.00 | 0.00 | 68 | 1008.1 |
| 20260506033055 | 60 | 0 | 0.0 | 3.5 | 0.00 | 0.00 | 0.00 | 68 | 1008.2 |
| 20260506032538 | 60 | 0 | 0.9 | 3.5 | 0.00 | 0.00 | 0.00 | 70 | 1008.1 |
| 20260506032043 | 59 | 0 | 0.0 | 0.9 | 0.00 | 0.00 | 0.00 | 70 | 1008.1 |
| 20260506031601 | 59 | 0 | 0.0 | 1.7 | 0.00 | 0.00 | 0.00 | 71 | 1008.2 |
| 20260506031038 | 59 | 0 | 0.0 | 1.7 | 0.00 | 0.00 | 0.00 | 72 | 1008.2 |
| 20260506030539 | 59 | 113 | 0.0 | 1.7 | 0.00 | 0.00 | 0.00 | 73 | 1008.1 |
| 20260506025539 | 59 | 263 | 0.0 | 1.7 | 0.00 | 0.00 | 0.00 | 74 | 1008.2 |
| 20260506025038 | 60 | 0 | 0.0 | 1.7 | 0.00 | 0.00 | 0.00 | 73 | 1008.2 |
| 20260506024558 | 60 | 0 | 0.0 | 1.7 | 0.00 | 0.00 | 0.00 | 72 | 1008.2 |
| 20260506024038 | 60 | 296 | 0.0 | 1.7 | 0.00 | 0.00 | 0.00 | 72 | 1008.1 |
| 20260506023539 | 61 | 0 | 0.0 | 1.7 | 0.00 | 0.00 | 0.00 | 71 | 1008.2 |
| 20260506023057 | 61 | 0 | 0.0 | 0.9 | 0.00 | 0.00 | 0.00 | 70 | 1008.2 |
| 20260506022538 | 62 | 0 | 0.0 | 0.0 | 0.00 | 0.00 | 0.00 | 69 | 1008.2 |
| 20260506022037 | 62 | 0 | 0.0 | 0.0 | 0.00 | 0.00 | 0.00 | 69 | 1008.4 |
| 20260506021600 | 62 | 0 | 0.0 | 0.0 | 0.00 | 0.00 | 0.00 | 69 | 1008.2 |
| 20260506021039 | 63 | 0 | 0.0 | 0.0 | 0.00 | 0.00 | 0.00 | 68 | 1008.3 |
| 20260506020536 | 63 | 0 | 0.0 | 0.0 | 0.00 | 0.00 | 0.00 | 67 | 1008.3 |
| 20260506020048 | 64 | 0 | 0.0 | 0.9 | 0.00 | 0.00 | 0.00 | 67 | 1008.2 |
| 20260506015538 | 64 | 0 | 0.0 | 0.9 | 0.00 | 0.00 | 0.00 | 66 | 1008.2 |
| 20260506015042 | 65 | 0 | 0.0 | 1.7 | 0.00 | 0.00 | 0.00 | 65 | 1008.2 |
| 20260506014558 | 65 | 0 | 0.0 | 1.7 | 0.00 | 0.00 | 0.00 | 64 | 1008.1 |
| 20260506014037 | 66 | 204 | 0.0 | 0.0 | 0.00 | 0.00 | 0.00 | 63 | 1008.2 |
| 20260506013537 | 67 | 0 | 0.0 | 0.0 | 0.00 | 0.00 | 0.00 | 62 | 1008.1 |
| 20260506013054 | 67 | 0 | 0.0 | 1.7 | 0.00 | 0.00 | 0.00 | 61 | 1008.2 |
| 20260506012537 | 67 | 0 | 0.0 | 1.7 | 0.00 | 0.00 | 0.00 | 60 | 1008.0 |
| 20260506012036 | 68 | 0 | 0.0 | 1.7 | 0.00 | 0.00 | 0.00 | 59 | 1007.9 |
| 20260506011552 | 69 | 0 | 0.0 | 0.9 | 0.00 | 0.00 | 0.00 | 58 | 1008.0 |
| 20260506011037 | 69 | 0 | 0.0 | 0.9 | 0.00 | 0.00 | 0.00 | 56 | 1007.9 |
| 20260506010539 | 70 | 0 | 0.0 | 0.9 | 0.00 | 0.00 | 0.00 | 55 | 1007.9 |
| 20260506010056 | 71 | 0 | 0.0 | 0.9 | 0.00 | 0.00 | 0.00 | 53 | 1007.8 |
| 20260506005537 | 71 | 0 | 0.0 | 0.9 | 0.00 | 0.00 | 0.00 | 53 | 1007.7 |
| 20260506005038 | 72 | 0 | 0.0 | 0.9 | 0.00 | 0.00 | 0.00 | 52 | 1007.7 |
| 20260506004553 | 72 | 0 | 0.0 | 0.9 | 0.00 | 0.00 | 0.00 | 52 | 1007.6 |
| 20260506004036 | 73 | 0 | 0.0 | 0.9 | 0.00 | 0.00 | 0.00 | 50 | 1007.6 |
| 20260506003537 | 73 | 0 | 0.0 | 1.7 | 0.00 | 0.00 | 0.00 | 49 | 1007.5 |
| 20260506003049 | 74 | 0 | 0.0 | 1.7 | 0.00 | 0.00 | 0.00 | 47 | 1007.4 |
| 20260506002538 | 74 | 0 | 0.0 | 0.0 | 0.00 | 0.00 | 0.00 | 46 | 1007.4 |
| 20260506002037 | 75 | 0 | 0.0 | 0.0 | 0.00 | 0.00 | 0.00 | 45 | 1007.3 |
| 20260506001552 | 75 | 0 | 0.0 | 0.9 | 0.00 | 0.00 | 0.00 | 46 | 1007.3 |
| 20260506001037 | 75 | 0 | 0.0 | 1.7 | 0.00 | 0.00 | 0.00 | 44 | 1007.3 |
| 20260506000537 | 76 | 0 | 0.0 | 1.7 | 0.00 | 0.00 | 0.00 | 43 | 1007.2 |
| 20260506000059 | 76 | 0 | 0.9 | 1.7 | 0.00 | 0.00 | 0.00 | 42 | 1007.2 |
| 20260505235537 | 76 | 0 | 0.0 | 8.7 | 0.00 | 0.00 | 0.00 | 42 | 1007.1 |
| 20260505235038 | 76 | 265 | 0.0 | 8.7 | 0.00 | 0.00 | 0.00 | 41 | 1007.0 |
| 20260505234551 | 77 | 0 | 1.7 | 8.7 | 0.00 | 0.00 | 0.00 | 40 | 1007.0 |
| 20260505234036 | 77 | 257 | 0.9 | 8.7 | 0.00 | 0.00 | 0.00 | 40 | 1006.9 |
| 20260505233537 | 77 | 307 | 0.9 | 10.4 | 0.00 | 0.00 | 0.00 | 39 | 1006.9 |
| 20260505233057 | 78 | 264 | 1.7 | 10.4 | 0.00 | 0.00 | 0.00 | 38 | 1006.8 |
| 20260505232536 | 78 | 227 | 4.3 | 10.4 | 0.00 | 0.00 | 0.00 | 37 | 1006.7 |
| 20260505232037 | 78 | 205 | 1.7 | 12.2 | 0.00 | 0.00 | 0.00 | 38 | 1006.5 |
| 20260505231545 | 78 | 279 | 3.5 | 12.2 | 0.00 | 0.00 | 0.00 | 37 | 1006.4 |
| 20260505231039 | 78 | 205 | 3.5 | 12.2 | 0.00 | 0.00 | 0.00 | 37 | 1006.3 |
| 20260505230636 | 78 | 223 | 2.6 | 12.2 | 0.00 | 0.00 | 0.00 | 37 | 1006.4 |
| 20260505230051 | 78 | 188 | 4.3 | 12.2 | 0.00 | 0.00 | 0.00 | 37 | 1006.3 |
| 20260505225540 | 78 | 204 | 2.6 | 10.4 | 0.00 | 0.00 | 0.00 | 37 | 1006.4 |
| 20260505225041 | 78 | 172 | 3.5 | 10.4 | 0.00 | 0.00 | 0.00 | 37 | 1006.2 |
| 20260505224549 | 78 | 220 | 3.5 | 10.4 | 0.00 | 0.00 | 0.00 | 37 | 1006.2 |
| 20260505224040 | 78 | 223 | 2.6 | 13.0 | 0.00 | 0.00 | 0.00 | 37 | 1006.2 |
| 20260505223539 | 78 | 194 | 4.3 | 13.0 | 0.00 | 0.00 | 0.00 | 37 | 1006.3 |
| 20260505223050 | 78 | 240 | 4.3 | 13.0 | 0.00 | 0.00 | 0.00 | 37 | 1006.3 |
| 20260505222536 | 78 | 202 | 3.5 | 10.4 | 0.00 | 0.00 | 0.00 | 37 | 1006.4 |
| 20260505222037 | 78 | 205 | 3.5 | 7.8 | 0.00 | 0.00 | 0.00 | 37 | 1006.5 |
| 20260505221546 | 78 | 182 | 2.6 | 8.7 | 0.00 | 0.00 | 0.00 | 38 | 1006.5 |
| 20260505221038 | 78 | 165 | 3.5 | 9.6 | 0.00 | 0.00 | 0.00 | 37 | 1006.5 |
| 20260505220537 | 78 | 192 | 3.5 | 9.6 | 0.00 | 0.00 | 0.00 | 37 | 1006.4 |
| 20260505220050 | 78 | 169 | 2.6 | 8.7 | 0.00 | 0.00 | 0.00 | 37 | 1006.3 |
| 20260505215538 | 78 | 219 | 2.6 | 10.4 | 0.00 | 0.00 | 0.00 | 37 | 1006.2 |
| 20260505215038 | 78 | 167 | 1.7 | 11.3 | 0.00 | 0.00 | 0.00 | 38 | 1006.2 |
| 20260505214544 | 79 | 209 | 3.5 | 11.3 | 0.00 | 0.00 | 0.00 | 37 | 1006.1 |
| 20260505214036 | 79 | 161 | 2.6 | 9.6 | 0.00 | 0.00 | 0.00 | 37 | 1006.1 |
| 20260505213537 | 79 | 167 | 3.5 | 11.3 | 0.00 | 0.00 | 0.00 | 37 | 1006.1 |
| 20260505213048 | 79 | 159 | 2.6 | 11.3 | 0.00 | 0.00 | 0.00 | 37 | 1006.0 |
| 20260505212537 | 79 | 163 | 4.3 | 11.3 | 0.00 | 0.00 | 0.00 | 37 | 1006.0 |
| 20260505212038 | 79 | 242 | 4.3 | 11.3 | 0.00 | 0.00 | 0.00 | 37 | 1006.1 |
| 20260505211546 | 79 | 221 | 4.3 | 11.3 | 0.00 | 0.00 | 0.00 | 36 | 1005.9 |
| 20260505211037 | 79 | 144 | 4.3 | 13.9 | 0.00 | 0.00 | 0.00 | 36 | 1006.1 |
| 20260505210536 | 79 | 187 | 3.5 | 13.9 | 0.00 | 0.00 | 0.00 | 36 | 1006.0 |
| 20260505210049 | 79 | 210 | 4.3 | 12.2 | 0.00 | 0.00 | 0.00 | 36 | 1006.0 |
| 20260505205541 | 79 | 168 | 3.5 | 13.0 | 0.00 | 0.00 | 0.00 | 36 | 1006.0 |
| 20260505205037 | 79 | 108 | 6.1 | 13.9 | 0.00 | 0.00 | 0.00 | 35 | 1006.0 |
| 20260505204548 | 79 | 196 | 6.1 | 16.5 | 0.00 | 0.00 | 0.00 | 35 | 1006.1 |
| 20260505204037 | 80 | 211 | 5.2 | 16.5 | 0.00 | 0.00 | 0.00 | 35 | 1005.9 |
| 20260505203538 | 80 | 167 | 5.2 | 12.2 | 0.00 | 0.00 | 0.00 | 36 | 1005.9 |
| 20260505203050 | 80 | 185 | 4.3 | 13.9 | 0.00 | 0.00 | 0.00 | 36 | 1005.9 |
| 20260505202538 | 80 | 199 | 4.3 | 14.8 | 0.00 | 0.00 | 0.00 | 35 | 1005.9 |
| 20260505202037 | 80 | 119 | 6.1 | 15.6 | 0.00 | 0.00 | 0.00 | 34 | 1006.0 |
| 20260505201553 | 80 | 198 | 7.0 | 18.2 | 0.00 | 0.00 | 0.00 | 34 | 1006.0 |
| 20260505201037 | 81 | 192 | 7.8 | 18.2 | 0.00 | 0.00 | 0.00 | 33 | 1005.9 |
| 20260505200539 | 81 | 198 | 8.7 | 16.5 | 0.00 | 0.00 | 0.00 | 32 | 1006.1 |
| 20260505200048 | 81 | 201 | 7.0 | 13.0 | 0.00 | 0.00 | 0.00 | 34 | 1006.1 |
| 20260505195540 | 81 | 206 | 5.2 | 13.0 | 0.00 | 0.00 | 0.00 | 34 | 1006.1 |
| 20260505195038 | 81 | 162 | 4.3 | 21.7 | 0.00 | 0.00 | 0.00 | 34 | 1006.3 |
| 20260505194557 | 81 | 215 | 8.7 | 21.7 | 0.00 | 0.00 | 0.00 | 33 | 1006.2 |
| 20260505194038 | 82 | 209 | 6.1 | 17.4 | 0.00 | 0.00 | 0.00 | 35 | 1006.2 |
| 20260505193537 | 82 | 163 | 6.1 | 18.2 | 0.00 | 0.00 | 0.00 | 34 | 1006.3 |
| 20260505193104 | 81 | 176 | 4.3 | 18.2 | 0.00 | 0.00 | 0.00 | 34 | 1006.4 |
| 20260505192619 | 81 | 265 | 7.0 | 19.1 | 0.00 | 0.00 | 0.00 | 34 | 1006.2 |
| 20260505192038 | 81 | 279 | 8.7 | 19.1 | 0.00 | 0.00 | 0.00 | 33 | 1006.2 |
| 20260505191544 | 81 | 194 | 8.7 | 18.2 | 0.00 | 0.00 | 0.00 | 34 | 1006.5 |
| 20260505191038 | 81 | 164 | 9.6 | 18.2 | 0.00 | 0.00 | 0.00 | 34 | 1006.2 |
| 20260505190536 | 81 | 202 | 7.8 | 16.5 | 0.00 | 0.00 | 0.00 | 35 | 1006.4 |
| 20260505190053 | 81 | 235 | 7.0 | 16.5 | 0.00 | 0.00 | 0.00 | 35 | 1006.4 |
| 20260505185537 | 81 | 261 | 4.3 | 14.8 | 0.00 | 0.00 | 0.00 | 35 | 1006.8 |
| 20260505185038 | 80 | 176 | 4.3 | 14.8 | 0.00 | 0.00 | 0.00 | 37 | 1006.8 |
| 20260505184552 | 80 | 215 | 5.2 | 14.8 | 0.00 | 0.00 | 0.00 | 38 | 1006.8 |
| 20260505184043 | 79 | 257 | 3.5 | 14.8 | 0.00 | 0.00 | 0.00 | 39 | 1006.8 |
| 20260505183536 | 79 | 205 | 5.2 | 13.0 | 0.00 | 0.00 | 0.00 | 39 | 1007.1 |
| 20260505183044 | 78 | 212 | 4.3 | 11.3 | 0.00 | 0.00 | 0.00 | 40 | 1007.2 |
| 20260505182538 | 78 | 213 | 3.5 | 10.4 | 0.00 | 0.00 | 0.00 | 40 | 1007.3 |
| 20260505182038 | 78 | 235 | 5.2 | 12.2 | 0.00 | 0.00 | 0.00 | 40 | 1007.4 |
| 20260505181548 | 78 | 218 | 5.2 | 15.6 | 0.00 | 0.00 | 0.00 | 40 | 1007.6 |
| 20260505181038 | 78 | 216 | 5.2 | 15.6 | 0.00 | 0.00 | 0.00 | 41 | 1007.7 |
| 20260505180538 | 78 | 186 | 6.1 | 12.2 | 0.00 | 0.00 | 0.00 | 41 | 1007.7 |
| 20260505180053 | 78 | 118 | 5.2 | 12.2 | 0.00 | 0.00 | 0.00 | 40 | 1007.6 |
| 20260505175537 | 78 | 198 | 5.2 | 12.2 | 0.00 | 0.00 | 0.00 | 41 | 1007.8 |
| 20260505175039 | 78 | 159 | 4.3 | 18.2 | 0.00 | 0.00 | 0.00 | 41 | 1007.7 |
| 20260505174546 | 78 | 229 | 5.2 | 18.2 | 0.00 | 0.00 | 0.00 | 41 | 1007.7 |
| 20260505174037 | 79 | 181 | 6.1 | 17.4 | 0.00 | 0.00 | 0.00 | 39 | 1007.6 |
| 20260505173536 | 79 | 170 | 7.0 | 17.4 | 0.00 | 0.00 | 0.00 | 40 | 1007.7 |
| 20260505173048 | 79 | 221 | 6.1 | 11.3 | 0.00 | 0.00 | 0.00 | 39 | 1007.6 |
| 20260505172536 | 79 | 195 | 7.0 | 11.3 | 0.00 | 0.00 | 0.00 | 40 | 1007.5 |
| 20260505172038 | 79 | 175 | 4.3 | 13.9 | 0.00 | 0.00 | 0.00 | 41 | 1007.5 |
| 20260505171550 | 79 | 222 | 3.5 | 13.9 | 0.00 | 0.00 | 0.00 | 40 | 1007.7 |
| 20260505171037 | 79 | 186 | 6.1 | 13.9 | 0.00 | 0.00 | 0.00 | 40 | 1007.8 |
| 20260505170536 | 79 | 304 | 5.2 | 14.8 | 0.00 | 0.00 | 0.00 | 41 | 1007.8 |
| 20260505170050 | 79 | 237 | 4.3 | 14.8 | 0.00 | 0.00 | 0.00 | 42 | 1007.8 |
| 20260505165538 | 78 | 165 | 4.3 | 14.8 | 0.00 | 0.00 | 0.00 | 42 | 1007.8 |
| 20260505165037 | 78 | 218 | 7.0 | 14.8 | 0.00 | 0.00 | 0.00 | 41 | 1008.2 |
| 20260505164549 | 78 | 237 | 6.1 | 16.5 | 0.00 | 0.00 | 0.00 | 42 | 1008.3 |
| 20260505164039 | 78 | 190 | 5.2 | 16.5 | 0.00 | 0.00 | 0.00 | 42 | 1008.3 |
| 20260505163537 | 78 | 219 | 6.1 | 17.4 | 0.00 | 0.00 | 0.00 | 42 | 1008.5 |
| 20260505163045 | 77 | 214 | 7.0 | 17.4 | 0.00 | 0.00 | 0.00 | 42 | 1008.6 |
| 20260505162538 | 77 | 182 | 5.2 | 13.0 | 0.00 | 0.00 | 0.00 | 43 | 1008.6 |
| 20260505162038 | 77 | 205 | 5.2 | 13.0 | 0.00 | 0.00 | 0.00 | 44 | 1008.7 |
| 20260505161625 | 77 | 211 | 5.2 | 13.9 | 0.00 | 0.00 | 0.00 | 44 | 1008.7 |
| 20260505161039 | 77 | 241 | 2.6 | 13.9 | 0.00 | 0.00 | 0.00 | 45 | 1008.6 |
| 20260505160538 | 77 | 182 | 3.5 | 11.3 | 0.00 | 0.00 | 0.00 | 46 | 1008.8 |
| 20260505153056 | 75 | 210 | 4.3 | 13.9 | 0.00 | 0.00 | 0.00 | 46 | 1009.2 |
| 20260505152537 | 75 | 177 | 5.2 | 13.0 | 0.00 | 0.00 | 0.00 | 46 | 1009.1 |
| 20260505152037 | 75 | 208 | 4.3 | 8.7 | 0.00 | 0.00 | 0.00 | 46 | 1009.1 |
| 20260505151551 | 75 | 210 | 4.3 | 8.7 | 0.00 | 0.00 | 0.00 | 47 | 1009.1 |
| 20260505151039 | 74 | 226 | 3.5 | 10.4 | 0.00 | 0.00 | 0.00 | 47 | 1009.2 |
| 20260505150537 | 74 | 176 | 2.6 | 10.4 | 0.00 | 0.00 | 0.00 | 47 | 1009.0 |
| 20260505140537 | 72 | 210 | 3.5 | 13.0 | 0.00 | 0.00 | 0.00 | 50 | 1009.3 |
| 20260505125040 | 68 | 169 | 3.5 | 10.4 | 0.00 | 0.00 | 0.00 | 54 | 1009.6 |
| 20260505124603 | 68 | 175 | 3.5 | 11.3 | 0.00 | 0.00 | 0.00 | 53 | 1009.6 |
| 20260505124040 | 68 | 233 | 3.5 | 11.3 | 0.00 | 0.00 | 0.00 | 54 | 1009.6 |
| 20260505123543 | 68 | 237 | 4.3 | 10.4 | 0.00 | 0.00 | 0.00 | 54 | 1009.7 |
| 20260505123104 | 68 | 146 | 3.5 | 11.3 | 0.00 | 0.00 | 0.00 | 54 | 1009.7 |
| 20260505122540 | 67 | 228 | 4.3 | 11.3 | 0.00 | 0.00 | 0.00 | 54 | 1009.6 |
| 20260505122041 | 67 | 207 | 1.7 | 8.7 | 0.00 | 0.00 | 0.00 | 56 | 1009.7 |
| 20260505121553 | 67 | 155 | 1.7 | 6.1 | 0.00 | 0.00 | 0.00 | 56 | 1009.6 |
| 20260505121042 | 67 | 234 | 1.7 | 6.1 | 0.00 | 0.00 | 0.00 | 56 | 1009.6 |
| 20260505120540 | 66 | 180 | 1.7 | 5.2 | 0.00 | 0.00 | 0.00 | 57 | 1009.4 |
| 20260505120100 | 66 | 0 | 0.9 | 5.2 | 0.00 | 0.00 | 0.00 | 57 | 1009.3 |
| 20260505115540 | 65 | 217 | 0.9 | 5.2 | 0.00 | 0.00 | 0.00 | 58 | 1009.4 |
| 20260505115038 | 65 | 241 | 0.9 | 7.0 | 0.00 | 0.00 | 0.00 | 58 | 1009.4 |
| 20260505114553 | 65 | 209 | 1.7 | 7.0 | 0.00 | 0.00 | 0.00 | 58 | 1009.5 |
| 20260505114040 | 65 | 314 | 1.7 | 7.0 | 0.00 | 0.00 | 0.00 | 58 | 1009.4 |
| 20260505113545 | 65 | 217 | 2.6 | 7.0 | 0.00 | 0.00 | 0.00 | 58 | 1009.4 |
| 20260505113054 | 65 | 229 | 1.7 | 7.0 | 0.00 | 0.00 | 0.00 | 58 | 1009.3 |
| 20260505112541 | 64 | 202 | 2.6 | 7.0 | 0.00 | 0.00 | 0.00 | 59 | 1009.2 |
| 20260505112041 | 64 | 169 | 3.5 | 7.0 | 0.00 | 0.00 | 0.00 | 59 | 1009.4 |
| 20260505111546 | 64 | 0 | 1.7 | 8.7 | 0.00 | 0.00 | 0.00 | 59 | 1009.3 |
| 20260505111040 | 64 | 162 | 3.5 | 11.3 | 0.00 | 0.00 | 0.00 | 59 | 1009.0 |
| 20260505110540 | 64 | 196 | 3.5 | 11.3 | 0.00 | 0.00 | 0.00 | 59 | 1009.1 |